Time,TemperatureF,DewpointF,PressureIn,WindDirection,WindDirectionDegrees,WindSpeedMPH,WindSpeedGustMPH,Humidity,HourlyPrecipIn,Conditions,Clouds,dailyrainin,SolarRadiationWatts/m^2,SoftwareType,DateUTC
2013-11-04 00:00:00,30.8,17.0,30.36,NNW,343,3.0,5.0,56,0.00,,CLR,0.00,0.00,VWS V14.01,2013-11-04 05:00:00,
2013-11-04 00:01:00,30.8,17.0,30.36,North,5,2.0,6.0,56,0.00,,CLR,0.00,0.00,VWS V14.01,2013-11-04 05:01:00,
2013-11-04 00:02:00,30.7,16.9,30.36,NW,323,5.0,8.0,56,0.00,,CLR,0.00,0.00,VWS V14.01,2013-11-04 05:02:00,
2013-11-04 00:03:00,30.8,17.0,30.36,NW,323,3.0,8.0,56,0.00,,CLR,0.00,0.00,VWS V14.01,2013-11-04 05:03:00,
2013-11-04 00:04:00,30.7,16.9,30.36,NW,323,2.0,8.0,56,0.00,,CLR,0.00,0.00,VWS V14.01,2013-11-04 05:04:00,
2013-11-04 00:05:00,30.8,17.0,30.36,NNW,338,2.0,8.0,56,0.00,,CLR,0.00,0.00,VWS V14.01,2013-11-04 05:05:00,
2013-11-04 00:10:00,30.6,16.8,30.36,NW,307,2.0,5.0,56,0.00,,CLR,0.00,0.00,VWS V14.01,2013-11-04 05:10:00,
2013-11-04 00:15:00,30.5,17.1,30.37,NNW,339,1.0,3.0,57,0.00,,CLR,0.00,0.00,VWS V14.01,2013-11-04 05:15:00,
2013-11-04 00:20:00,30.3,16.9,30.38,NNW,340,2.0,4.0,57,0.00,,CLR,0.00,0.00,VWS V14.01,2013-11-04 05:20:00,
2013-11-04 00:25:00,30.3,16.9,30.37,NW,321,2.0,6.0,57,0.00,,CLR,0.00,0.00,VWS V14.01,2013-11-04 05:25:00,
2013-11-04 00:30:00,30.3,16.9,30.37,NNW,327,3.0,5.0,57,0.00,,CLR,0.00,0.00,VWS V14.01,2013-11-04 05:30:00,
2013-11-04 00:35:00,30.3,16.9,30.38,NNW,327,2.0,2.0,57,0.00,,CLR,0.00,0.00,VWS V14.01,2013-11-04 05:35:00,
2013-11-04 00:40:00,30.2,16.8,30.38,NNW,337,1.0,3.0,57,0.00,,CLR,0.00,0.00,VWS V14.01,2013-11-04 05:40:00,
2013-11-04 00:41:00,30.2,17.2,30.38,NW,325,1.0,4.0,58,0.00,,CLR,0.00,0.00,VWS V14.01,2013-11-04 05:41:00,
2013-11-04 00:45:00,30.1,17.1,30.38,NW,325,2.0,4.0,58,0.00,,CLR,0.00,0.00,VWS V14.01,2013-11-04 05:45:00,
2013-11-04 00:46:00,30.1,17.1,30.38,North,350,2.0,5.0,58,0.00,,CLR,0.00,0.00,VWS V14.01,2013-11-04 05:46:00,
2013-11-04 00:50:00,30.1,17.1,30.38,NW,317,2.0,5.0,58,0.00,,CLR,0.00,0.00,VWS V14.01,2013-11-04 05:50:00,
2013-11-04 00:51:00,30.0,17.0,30.38,NW,317,3.0,3.0,58,0.00,,CLR,0.00,0.00,VWS V14.01,2013-11-04 05:51:00,
2013-11-04 00:55:00,30.0,17.0,30.38,NW,317,3.0,4.0,58,0.00,,CLR,0.00,0.00,VWS V14.01,2013-11-04 05:55:00,
2013-11-04 00:56:00,30.0,17.0,30.39,NW,315,0.0,6.0,58,0.00,,CLR,0.00,0.00,VWS V14.01,2013-11-04 05:56:00,
2013-11-04 01:00:00,30.0,17.0,30.39,NW,315,0.0,6.0,58,0.00,,CLR,0.00,0.00,VWS V14.01,2013-11-04 06:00:00,
2013-11-04 01:01:00,30.0,17.0,30.39,NNW,327,1.0,3.0,58,0.00,,CLR,0.00,0.00,VWS V14.01,2013-11-04 06:01:00,
2013-11-04 01:05:00,30.0,17.0,30.39,NNW,327,1.0,3.0,58,0.00,,CLR,0.00,0.00,VWS V14.01,2013-11-04 06:05:00,
2013-11-04 01:06:00,29.9,17.3,30.39,NW,326,2.0,3.0,59,0.00,,CLR,0.00,0.00,VWS V14.01,2013-11-04 06:06:00,
2013-11-04 01:10:00,29.9,17.3,30.39,NW,326,1.0,3.0,59,0.00,,CLR,0.00,0.00,VWS V14.01,2013-11-04 06:10:00,
2013-11-04 01:11:00,29.7,17.1,30.39,NW,326,2.0,3.0,59,0.00,,CLR,0.00,0.00,VWS V14.01,2013-11-04 06:11:00,
2013-11-04 01:15:00,29.6,17.0,30.39,NW,326,1.0,3.0,59,0.00,,CLR,0.00,0.00,VWS V14.01,2013-11-04 06:15:00,
2013-11-04 01:16:00,29.6,17.0,30.39,NW,326,0.0,3.0,59,0.00,,CLR,0.00,0.00,VWS V14.01,2013-11-04 06:16:00,
2013-11-04 01:20:00,29.6,17.0,30.39,NW,325,0.0,3.0,59,0.00,,CLR,0.00,0.00,VWS V14.01,2013-11-04 06:20:00,
2013-11-04 01:21:00,29.4,17.2,30.40,NW,326,2.0,4.0,60,0.00,,CLR,0.00,0.00,VWS V14.01,2013-11-04 06:21:00,
2013-11-04 01:25:00,29.4,17.2,30.40,NW,325,2.0,4.0,60,0.00,,CLR,0.00,0.00,VWS V14.01,2013-11-04 06:25:00,
2013-11-04 01:26:00,29.3,17.1,30.40,NW,325,3.0,3.0,60,0.00,,CLR,0.00,0.00,VWS V14.01,2013-11-04 06:26:00,
2013-11-04 01:30:00,29.3,17.1,30.40,NW,325,3.0,3.0,60,0.00,,CLR,0.00,0.00,VWS V14.01,2013-11-04 06:30:00,
2013-11-04 01:31:00,29.2,17.1,30.40,NNW,327,1.0,4.0,60,0.00,,CLR,0.00,0.00,VWS V14.01,2013-11-04 06:31:00,
2013-11-04 01:35:00,29.2,17.1,30.40,NNW,327,1.0,4.0,60,0.00,,CLR,0.00,0.00,VWS V14.01,2013-11-04 06:35:00,
2013-11-04 01:36:00,29.0,17.2,30.41,NW,326,2.0,4.0,61,0.00,,CLR,0.00,0.00,VWS V14.01,2013-11-04 06:36:00,
2013-11-04 01:40:00,29.0,17.2,30.41,NW,326,2.0,4.0,61,0.00,,CLR,0.00,0.00,VWS V14.01,2013-11-04 06:40:00,
2013-11-04 01:41:00,28.9,17.2,30.41,NW,326,0.0,3.0,61,0.00,,CLR,0.00,0.00,VWS V14.01,2013-11-04 06:41:00,
2013-11-04 01:45:00,28.9,17.2,30.41,NW,326,0.0,3.0,61,0.00,,CLR,0.00,0.00,VWS V14.01,2013-11-04 06:45:00,
2013-11-04 01:46:00,28.6,16.9,30.41,NW,325,1.0,1.0,61,0.00,,CLR,0.00,0.00,VWS V14.01,2013-11-04 06:46:00,
2013-11-04 01:50:00,28.7,17.0,30.41,NW,326,1.0,3.0,61,0.00,,CLR,0.00,0.00,VWS V14.01,2013-11-04 06:50:00,
2013-11-04 01:52:00,28.5,17.1,30.41,NW,325,3.0,3.0,62,0.00,,CLR,0.00,0.00,VWS V14.01,2013-11-04 06:52:00,
2013-11-04 01:55:00,28.5,17.1,30.41,NW,326,1.0,3.0,62,0.00,,CLR,0.00,0.00,VWS V14.01,2013-11-04 06:55:00,
2013-11-04 01:57:00,28.4,17.1,30.42,NNW,332,4.0,4.0,62,0.00,,CLR,0.00,0.00,VWS V14.01,2013-11-04 06:57:00,
2013-11-04 02:00:00,28.4,17.1,30.41,NW,306,4.0,4.0,62,0.00,,CLR,0.00,0.00,VWS V14.01,2013-11-04 07:00:00,
2013-11-04 02:02:00,28.5,17.1,30.41,NNW,329,0.0,0.0,62,0.00,,CLR,0.00,0.00,VWS V14.01,2013-11-04 07:02:00,
2013-11-04 02:05:00,28.5,17.1,30.42,NNW,329,0.0,4.0,62,0.00,,CLR,0.00,0.00,VWS V14.01,2013-11-04 07:05:00,
2013-11-04 02:07:00,28.5,17.1,30.42,NNW,329,1.0,2.0,62,0.00,,CLR,0.00,0.00,VWS V14.01,2013-11-04 07:07:00,
2013-11-04 02:10:00,28.4,17.1,30.42,NNW,329,1.0,3.0,62,0.00,,CLR,0.00,0.00,VWS V14.01,2013-11-04 07:10:00,
2013-11-04 02:12:00,28.4,17.1,30.42,NW,323,1.0,1.0,62,0.00,,CLR,0.00,0.00,VWS V14.01,2013-11-04 07:12:00,
2013-11-04 02:15:00,28.4,17.1,30.42,NW,323,1.0,4.0,62,0.00,,CLR,0.00,0.00,VWS V14.01,2013-11-04 07:15:00,
2013-11-04 02:17:00,28.4,17.1,30.42,NNW,329,2.0,3.0,62,0.00,,CLR,0.00,0.00,VWS V14.01,2013-11-04 07:17:00,
2013-11-04 02:20:00,28.4,17.1,30.42,NNW,329,0.0,3.0,62,0.00,,CLR,0.00,0.00,VWS V14.01,2013-11-04 07:20:00,
2013-11-04 02:22:00,28.4,17.1,30.42,NW,307,0.0,0.0,62,0.00,,CLR,0.00,0.00,VWS V14.01,2013-11-04 07:22:00,
2013-11-04 02:25:00,28.4,17.1,30.42,NW,307,0.0,5.0,62,0.00,,CLR,0.00,0.00,VWS V14.01,2013-11-04 07:25:00,
2013-11-04 02:27:00,28.3,17.0,30.42,NW,307,3.0,4.0,62,0.00,,CLR,0.00,0.00,VWS V14.01,2013-11-04 07:27:00,
2013-11-04 02:30:00,28.3,17.0,30.42,NW,307,1.0,3.0,62,0.00,,CLR,0.00,0.00,VWS V14.01,2013-11-04 07:30:00,
2013-11-04 02:32:00,28.3,17.0,30.42,NW,313,2.0,3.0,62,0.00,,CLR,0.00,0.00,VWS V14.01,2013-11-04 07:32:00,
2013-11-04 02:35:00,28.3,17.0,30.42,NW,313,2.0,4.0,62,0.00,,CLR,0.00,0.00,VWS V14.01,2013-11-04 07:35:00,
2013-11-04 02:37:00,28.3,17.0,30.43,NW,309,0.0,1.0,62,0.00,,CLR,0.00,0.00,VWS V14.01,2013-11-04 07:37:00,
2013-11-04 02:40:00,28.3,17.0,30.42,NW,309,1.0,5.0,62,0.00,,CLR,0.00,0.00,VWS V14.01,2013-11-04 07:40:00,
2013-11-04 02:42:00,28.3,17.0,30.43,NNW,327,3.0,3.0,62,0.00,,CLR,0.00,0.00,VWS V14.01,2013-11-04 07:42:00,
2013-11-04 02:45:00,28.3,17.0,30.43,NNW,328,2.0,5.0,62,0.00,,CLR,0.00,0.00,VWS V14.01,2013-11-04 07:45:00,
2013-11-04 02:47:00,28.3,17.0,30.43,NNW,327,1.0,1.0,62,0.00,,CLR,0.00,0.00,VWS V14.01,2013-11-04 07:47:00,
2013-11-04 02:50:00,28.3,17.0,30.43,NNW,327,0.0,4.0,62,0.00,,CLR,0.00,0.00,VWS V14.01,2013-11-04 07:50:00,
2013-11-04 02:52:00,28.2,16.9,30.43,North,5,1.0,2.0,62,0.00,,CLR,0.00,0.00,VWS V14.01,2013-11-04 07:52:00,
2013-11-04 02:55:00,28.2,16.9,30.43,North,5,1.0,4.0,62,0.00,,CLR,0.00,0.00,VWS V14.01,2013-11-04 07:55:00,
2013-11-04 02:57:00,28.2,16.9,30.44,NW,322,2.0,4.0,62,0.00,,CLR,0.00,0.00,VWS V14.01,2013-11-04 07:57:00,
2013-11-04 03:00:00,28.2,16.9,30.44,NW,322,2.0,4.0,62,0.00,,CLR,0.00,0.00,VWS V14.01,2013-11-04 08:00:00,
2013-11-04 03:03:00,28.1,17.1,30.44,NNW,331,2.0,4.0,63,0.00,,CLR,0.00,0.00,VWS V14.01,2013-11-04 08:03:00,
2013-11-04 03:05:00,28.1,16.8,30.44,NNW,332,1.0,4.0,62,0.00,,CLR,0.00,0.00,VWS V14.01,2013-11-04 08:05:00,
2013-11-04 03:08:00,28.0,16.7,30.44,NNW,334,1.0,2.0,62,0.00,,CLR,0.00,0.00,VWS V14.01,2013-11-04 08:08:00,
2013-11-04 03:10:00,28.0,17.0,30.44,NNW,334,2.0,4.0,63,0.00,,CLR,0.00,0.00,VWS V14.01,2013-11-04 08:10:00,
2013-11-04 03:13:00,28.1,16.8,30.44,NNW,333,0.0,2.0,62,0.00,,CLR,0.00,0.00,VWS V14.01,2013-11-04 08:13:00,
2013-11-04 03:15:00,28.1,16.8,30.44,NNW,334,2.0,4.0,62,0.00,,CLR,0.00,0.00,VWS V14.01,2013-11-04 08:15:00,
2013-11-04 03:18:00,28.0,17.0,30.44,NNW,333,1.0,2.0,63,0.00,,CLR,0.00,0.00,VWS V14.01,2013-11-04 08:18:00,
2013-11-04 03:20:00,28.0,17.0,30.44,NNW,334,1.0,4.0,63,0.00,,CLR,0.00,0.00,VWS V14.01,2013-11-04 08:20:00,
2013-11-04 03:23:00,27.9,17.0,30.44,NNW,333,1.0,3.0,63,0.00,,CLR,0.00,0.00,VWS V14.01,2013-11-04 08:23:00,
2013-11-04 03:25:00,28.0,17.0,30.45,NNW,333,1.0,4.0,63,0.00,,CLR,0.00,0.00,VWS V14.01,2013-11-04 08:25:00,
2013-11-04 03:28:00,27.8,16.9,30.45,NNW,334,1.0,3.0,63,0.00,,CLR,0.00,0.00,VWS V14.01,2013-11-04 08:28:00,
2013-11-04 03:30:00,27.8,16.9,30.45,NNW,334,3.0,4.0,63,0.00,,CLR,0.00,0.00,VWS V14.01,2013-11-04 08:30:00,
2013-11-04 03:33:00,27.8,16.9,30.45,NNW,333,1.0,2.0,63,0.00,,CLR,0.00,0.00,VWS V14.01,2013-11-04 08:33:00,
2013-11-04 03:35:00,27.8,16.9,30.45,NNW,334,1.0,3.0,63,0.00,,CLR,0.00,0.00,VWS V14.01,2013-11-04 08:35:00,
2013-11-04 03:38:00,27.6,16.7,30.45,NNW,335,2.0,2.0,63,0.00,,CLR,0.00,0.00,VWS V14.01,2013-11-04 08:38:00,
2013-11-04 03:40:00,27.6,16.7,30.45,NNW,334,0.0,2.0,63,0.00,,CLR,0.00,0.00,VWS V14.01,2013-11-04 08:40:00,
2013-11-04 03:43:00,27.5,16.6,30.45,NNW,336,0.0,3.0,63,0.00,,CLR,0.00,0.00,VWS V14.01,2013-11-04 08:43:00,
2013-11-04 03:45:00,27.5,16.6,30.45,NNW,336,2.0,3.0,63,0.00,,CLR,0.00,0.00,VWS V14.01,2013-11-04 08:45:00,
2013-11-04 03:48:00,27.5,16.6,30.45,NNW,338,3.0,3.0,63,0.00,,CLR,0.00,0.00,VWS V14.01,2013-11-04 08:48:00,
2013-11-04 03:50:00,27.5,16.6,30.45,NNW,336,2.0,3.0,63,0.00,,CLR,0.00,0.00,VWS V14.01,2013-11-04 08:50:00,
2013-11-04 03:53:00,27.5,16.6,30.45,NNW,337,2.0,4.0,63,0.00,,CLR,0.00,0.00,VWS V14.01,2013-11-04 08:53:00,
2013-11-04 03:55:00,27.5,16.6,30.45,NNW,337,2.0,4.0,63,0.00,,CLR,0.00,0.00,VWS V14.01,2013-11-04 08:55:00,
2013-11-04 03:58:00,27.4,16.5,30.45,NNW,342,2.0,3.0,63,0.00,,CLR,0.00,0.00,VWS V14.01,2013-11-04 08:58:00,
2013-11-04 04:00:00,27.4,16.5,30.45,NNW,340,2.0,4.0,63,0.00,,CLR,0.00,0.00,VWS V14.01,2013-11-04 09:00:00,
2013-11-04 04:03:00,27.4,16.8,30.45,NNW,343,3.0,4.0,64,0.00,,CLR,0.00,0.00,VWS V14.01,2013-11-04 09:03:00,
2013-11-04 04:05:00,27.4,16.5,30.45,NNW,332,3.0,5.0,63,0.00,,CLR,0.00,0.00,VWS V14.01,2013-11-04 09:05:00,
2013-11-04 04:08:00,27.3,16.8,30.45,NNW,346,5.0,5.0,64,0.00,,CLR,0.00,0.00,VWS V14.01,2013-11-04 09:08:00,
2013-11-04 04:10:00,27.3,16.8,30.45,NW,323,1.0,5.0,64,0.00,,CLR,0.00,0.00,VWS V14.01,2013-11-04 09:10:00,
2013-11-04 04:14:00,27.3,16.8,30.45,North,355,3.0,3.0,64,0.00,,CLR,0.00,0.00,VWS V14.01,2013-11-04 09:14:00,
2013-11-04 04:15:00,27.3,16.8,30.45,NNW,333,2.0,6.0,64,0.00,,CLR,0.00,0.00,VWS V14.01,2013-11-04 09:15:00,
2013-11-04 04:19:00,27.2,16.6,30.46,North,5,1.0,4.0,64,0.00,,CLR,0.00,0.00,VWS V14.01,2013-11-04 09:19:00,
2013-11-04 04:20:00,27.2,16.6,30.45,NNW,343,2.0,5.0,64,0.00,,CLR,0.00,0.00,VWS V14.01,2013-11-04 09:20:00,
2013-11-04 04:24:00,27.1,16.6,30.46,NW,319,2.0,5.0,64,0.00,,CLR,0.00,0.00,VWS V14.01,2013-11-04 09:24:00,
2013-11-04 04:25:00,27.1,16.6,30.46,NW,310,3.0,5.0,64,0.00,,CLR,0.00,0.00,VWS V14.01,2013-11-04 09:25:00,
2013-11-04 04:29:00,27.0,16.5,30.46,NW,326,1.0,5.0,64,0.00,,CLR,0.00,0.00,VWS V14.01,2013-11-04 09:29:00,
2013-11-04 04:30:00,27.1,16.6,30.46,NNW,328,3.0,5.0,64,0.00,,CLR,0.00,0.00,VWS V14.01,2013-11-04 09:30:00,
2013-11-04 04:34:00,26.9,16.4,30.47,NW,326,1.0,2.0,64,0.00,,CLR,0.00,0.00,VWS V14.01,2013-11-04 09:34:00,
2013-11-04 04:35:00,27.0,16.5,30.46,NW,326,1.0,5.0,64,0.00,,CLR,0.00,0.00,VWS V14.01,2013-11-04 09:35:00,
2013-11-04 04:39:00,26.8,16.3,30.47,NNW,327,3.0,4.0,64,0.00,,CLR,0.00,0.00,VWS V14.01,2013-11-04 09:39:00,
2013-11-04 04:40:00,26.9,16.4,30.47,NW,326,2.0,3.0,64,0.00,,CLR,0.00,0.00,VWS V14.01,2013-11-04 09:40:00,
2013-11-04 04:44:00,26.9,16.4,30.47,NNW,327,1.0,2.0,64,0.00,,CLR,0.00,0.00,VWS V14.01,2013-11-04 09:44:00,
2013-11-04 04:45:00,26.9,16.4,30.47,NNW,327,2.0,4.0,64,0.00,,CLR,0.00,0.00,VWS V14.01,2013-11-04 09:45:00,
2013-11-04 04:49:00,26.9,16.4,30.47,NNW,336,3.0,4.0,64,0.00,,CLR,0.00,0.00,VWS V14.01,2013-11-04 09:49:00,
2013-11-04 04:50:00,26.9,16.4,30.47,NNW,327,1.0,2.0,64,0.00,,CLR,0.00,0.00,VWS V14.01,2013-11-04 09:50:00,
2013-11-04 04:54:00,26.9,16.0,30.48,NNW,328,0.0,4.0,63,0.00,,CLR,0.00,0.00,VWS V14.01,2013-11-04 09:54:00,
2013-11-04 04:55:00,26.9,16.4,30.48,NNW,336,2.0,4.0,64,0.00,,CLR,0.00,0.00,VWS V14.01,2013-11-04 09:55:00,
2013-11-04 04:59:00,26.9,16.0,30.48,NNW,328,1.0,2.0,63,0.00,,CLR,0.00,0.00,VWS V14.01,2013-11-04 09:59:00,
2013-11-04 05:00:00,26.9,16.4,30.48,NNW,328,1.0,4.0,64,0.00,,CLR,0.00,0.00,VWS V14.01,2013-11-04 10:00:00,
2013-11-04 05:04:00,26.9,16.0,30.48,NW,324,2.0,5.0,63,0.00,,CLR,0.00,0.00,VWS V14.01,2013-11-04 10:04:00,
2013-11-04 05:05:00,26.9,16.4,30.48,NW,311,5.0,5.0,64,0.00,,CLR,0.00,0.00,VWS V14.01,2013-11-04 10:05:00,
2013-11-04 05:09:00,27.0,16.1,30.49,NNW,330,2.0,4.0,63,0.00,,CLR,0.00,0.00,VWS V14.01,2013-11-04 10:09:00,
2013-11-04 05:10:00,26.9,16.0,30.48,NW,325,3.0,5.0,63,0.00,,CLR,0.00,0.00,VWS V14.01,2013-11-04 10:10:00,
2013-11-04 05:14:00,27.0,16.1,30.49,NNW,329,2.0,3.0,63,0.00,,CLR,0.00,0.00,VWS V14.01,2013-11-04 10:14:00,
2013-11-04 05:15:00,27.0,16.1,30.49,NNW,329,2.0,4.0,63,0.00,,CLR,0.00,0.00,VWS V14.01,2013-11-04 10:15:00,
2013-11-04 05:19:00,27.0,16.1,30.49,NNW,329,1.0,4.0,63,0.00,,CLR,0.00,0.00,VWS V14.01,2013-11-04 10:19:00,
2013-11-04 05:20:00,27.0,16.1,30.49,NNW,329,2.0,3.0,63,0.00,,CLR,0.00,0.00,VWS V14.01,2013-11-04 10:20:00,
2013-11-04 05:24:00,27.0,16.1,30.49,NW,310,0.0,2.0,63,0.00,,CLR,0.00,0.00,VWS V14.01,2013-11-04 10:24:00,
2013-11-04 05:25:00,27.0,16.1,30.49,NW,311,1.0,4.0,63,0.00,,CLR,0.00,0.00,VWS V14.01,2013-11-04 10:25:00,
2013-11-04 05:29:00,26.9,16.0,30.50,NW,313,1.0,4.0,63,0.00,,CLR,0.00,0.00,VWS V14.01,2013-11-04 10:29:00,
2013-11-04 05:30:00,27.0,16.1,30.49,NW,311,2.0,3.0,63,0.00,,CLR,0.00,0.00,VWS V14.01,2013-11-04 10:30:00,
2013-11-04 05:35:00,26.9,16.4,30.50,NW,312,0.0,3.0,64,0.00,,CLR,0.00,0.00,VWS V14.01,2013-11-04 10:35:00,
2013-11-04 05:40:00,26.8,16.3,30.50,NNW,342,0.0,4.0,64,0.00,,CLR,0.00,0.00,VWS V14.01,2013-11-04 10:40:00,
2013-11-04 05:45:00,26.7,16.2,30.50,NNW,341,1.0,3.0,64,0.00,,CLR,0.00,0.00,VWS V14.01,2013-11-04 10:45:00,
2013-11-04 05:50:00,26.6,16.1,30.50,NW,321,1.0,3.0,64,0.00,,CLR,0.00,0.00,VWS V14.01,2013-11-04 10:50:00,
2013-11-04 05:55:00,26.6,16.1,30.51,NW,321,0.0,4.0,64,0.00,,CLR,0.00,0.00,VWS V14.01,2013-11-04 10:55:00,
2013-11-04 06:00:00,26.6,16.1,30.51,NW,325,2.0,3.0,64,0.00,,CLR,0.00,0.00,VWS V14.01,2013-11-04 11:00:00,
2013-11-04 06:05:00,26.7,16.2,30.51,NW,326,1.0,3.0,64,0.00,,CLR,0.00,0.00,VWS V14.01,2013-11-04 11:05:00,
2013-11-04 06:10:00,26.7,16.2,30.51,NW,325,2.0,3.0,64,0.00,,CLR,0.00,0.00,VWS V14.01,2013-11-04 11:10:00,
2013-11-04 06:15:00,26.7,16.2,30.52,NW,326,3.0,4.0,64,0.00,,CLR,0.00,0.00,VWS V14.01,2013-11-04 11:15:00,
2013-11-04 06:20:00,26.7,16.2,30.52,North,355,2.0,4.0,64,0.00,,CLR,0.00,0.00,VWS V14.01,2013-11-04 11:20:00,
2013-11-04 06:24:00,26.7,16.2,30.52,North,351,0.0,2.0,64,0.00,,CLR,0.00,5.00,VWS V14.01,2013-11-04 11:24:00,
2013-11-04 06:25:00,26.7,16.2,30.52,North,355,0.0,4.0,64,0.00,,CLR,0.00,0.00,VWS V14.01,2013-11-04 11:25:00,
2013-11-04 06:29:00,26.6,16.1,30.52,NNE,19,0.0,3.0,64,0.00,,CLR,0.00,7.00,VWS V14.01,2013-11-04 11:29:00,
2013-11-04 06:30:00,26.7,16.2,30.52,NNE,19,2.0,4.0,64,0.00,,CLR,0.00,5.00,VWS V14.01,2013-11-04 11:30:00,
2013-11-04 06:34:00,26.5,16.0,30.52,NNE,20,2.0,3.0,64,0.00,,CLR,0.00,9.00,VWS V14.01,2013-11-04 11:34:00,
2013-11-04 06:35:00,26.6,16.1,30.52,NNE,19,2.0,3.0,64,0.00,,CLR,0.00,9.00,VWS V14.01,2013-11-04 11:35:00,
2013-11-04 06:39:00,26.6,16.1,30.52,NNE,19,0.0,1.0,64,0.00,,CLR,0.00,16.00,VWS V14.01,2013-11-04 11:39:00,
2013-11-04 06:40:00,26.6,16.1,30.52,NNE,20,0.0,3.0,64,0.00,,CLR,0.00,11.00,VWS V14.01,2013-11-04 11:40:00,
2013-11-04 06:44:00,26.8,16.3,30.53,NNE,20,0.0,1.0,64,0.00,,CLR,0.00,23.00,VWS V14.01,2013-11-04 11:44:00,
2013-11-04 06:45:00,26.6,16.1,30.52,NNE,20,0.0,1.0,64,0.00,,CLR,0.00,19.00,VWS V14.01,2013-11-04 11:45:00,
2013-11-04 06:49:00,27.1,16.2,30.53,NNE,20,0.0,3.0,63,0.00,,CLR,0.00,35.00,VWS V14.01,2013-11-04 11:49:00,
2013-11-04 06:50:00,26.9,16.4,30.53,NNE,19,0.0,1.0,64,0.00,,CLR,0.00,30.00,VWS V14.01,2013-11-04 11:50:00,
2013-11-04 06:54:00,27.3,16.4,30.53,NNE,24,0.0,2.0,63,0.00,,CLR,0.00,46.00,VWS V14.01,2013-11-04 11:54:00,
2013-11-04 06:55:00,27.2,16.3,30.53,NNE,24,0.0,3.0,63,0.00,,CLR,0.00,40.00,VWS V14.01,2013-11-04 11:55:00,
2013-11-04 06:59:00,27.7,16.8,30.53,NNE,24,2.0,2.0,63,0.00,,CLR,0.00,58.00,VWS V14.01,2013-11-04 11:59:00,
2013-11-04 07:00:00,27.4,16.5,30.53,NNE,24,0.0,2.0,63,0.00,,CLR,0.00,51.00,VWS V14.01,2013-11-04 12:00:00,
2013-11-04 07:04:00,28.1,16.8,30.53,NNE,28,2.0,4.0,62,0.00,,CLR,0.00,70.00,VWS V14.01,2013-11-04 12:04:00,
2013-11-04 07:05:00,27.9,16.6,30.53,NNE,30,0.0,5.0,62,0.00,,CLR,0.00,65.00,VWS V14.01,2013-11-04 12:05:00,
2013-11-04 07:10:00,28.3,17.0,30.54,NNE,17,2.0,3.0,62,0.00,,CLR,0.00,86.00,VWS V14.01,2013-11-04 12:10:00,
2013-11-04 07:15:00,28.7,17.0,30.54,NNE,17,0.0,4.0,61,0.00,,CLR,0.00,100.00,VWS V14.01,2013-11-04 12:15:00,
2013-11-04 07:20:00,29.0,17.2,30.54,NNE,28,2.0,3.0,61,0.00,,CLR,0.00,118.00,VWS V14.01,2013-11-04 12:20:00,
2013-11-04 07:25:00,29.2,17.1,30.55,NE,38,1.0,6.0,60,0.00,,CLR,0.00,134.00,VWS V14.01,2013-11-04 12:25:00,
2013-11-04 07:30:00,29.3,16.8,30.55,NNE,30,2.0,7.0,59,0.00,,CLR,0.00,151.00,VWS V14.01,2013-11-04 12:30:00,
2013-11-04 07:35:00,29.5,17.0,30.55,NNE,28,2.0,5.0,59,0.00,,CLR,0.00,167.00,VWS V14.01,2013-11-04 12:35:00,
2013-11-04 07:40:00,29.7,17.1,30.55,North,360,4.0,6.0,59,0.00,,CLR,0.00,185.00,VWS V14.01,2013-11-04 12:40:00,
2013-11-04 07:45:00,29.8,16.8,30.55,NNE,17,5.0,8.0,58,0.00,,CLR,0.00,200.00,VWS V14.01,2013-11-04 12:45:00,
2013-11-04 07:50:00,30.0,17.4,30.55,North,5,3.0,9.0,59,0.00,,CLR,0.00,216.00,VWS V14.01,2013-11-04 12:50:00,
2013-11-04 07:55:00,30.1,17.1,30.56,NNE,22,7.0,8.0,58,0.00,,CLR,0.00,230.00,VWS V14.01,2013-11-04 12:55:00,
2013-11-04 08:00:00,30.3,17.3,30.56,North,9,5.0,6.0,58,0.00,,CLR,0.00,243.00,VWS V14.01,2013-11-04 13:00:00,
2013-11-04 08:05:00,30.5,17.5,30.56,North,350,2.0,9.0,58,0.00,,CLR,0.00,255.00,VWS V14.01,2013-11-04 13:05:00,
2013-11-04 08:10:00,30.9,17.5,30.56,North,9,5.0,10.0,57,0.00,,CLR,0.00,267.00,VWS V14.01,2013-11-04 13:10:00,
2013-11-04 08:15:00,31.2,17.8,30.55,NNE,12,1.0,6.0,57,0.00,,CLR,0.00,279.00,VWS V14.01,2013-11-04 13:15:00,
2013-11-04 08:20:00,31.6,17.7,30.55,NNW,340,8.0,8.0,56,0.00,,CLR,0.00,294.00,VWS V14.01,2013-11-04 13:20:00,
2013-11-04 08:25:00,31.8,17.9,30.56,North,9,4.0,10.0,56,0.00,,CLR,0.00,306.00,VWS V14.01,2013-11-04 13:25:00,
2013-11-04 08:30:00,32.3,18.0,30.56,NE,38,5.0,8.0,55,0.00,,CLR,0.00,318.00,VWS V14.01,2013-11-04 13:30:00,
2013-11-04 08:35:00,32.3,18.0,30.56,NE,55,5.0,8.0,55,0.00,,CLR,0.00,318.00,VWS V14.01,2013-11-04 13:35:00,
2013-11-04 08:36:00,32.7,17.5,30.56,NNE,13,5.0,9.0,53,0.00,,CLR,0.00,329.00,VWS V14.01,2013-11-04 13:36:00,
2013-11-04 08:40:00,32.8,17.6,30.56,North,360,6.0,9.0,53,0.00,,CLR,0.00,330.00,VWS V14.01,2013-11-04 13:40:00,
2013-11-04 08:41:00,32.8,17.1,30.55,North,5,6.0,9.0,52,0.00,,CLR,0.00,339.00,VWS V14.01,2013-11-04 13:41:00,
2013-11-04 08:45:00,32.9,17.2,30.55,NNW,348,11.0,11.0,52,0.00,,CLR,0.00,343.00,VWS V14.01,2013-11-04 13:45:00,
2013-11-04 08:46:00,33.0,17.8,30.56,ENE,57,3.0,12.0,53,0.00,,CLR,0.00,352.00,VWS V14.01,2013-11-04 13:46:00,
2013-11-04 08:50:00,33.1,17.8,30.56,ENE,57,2.0,12.0,53,0.00,,CLR,0.00,353.00,VWS V14.01,2013-11-04 13:50:00,
2013-11-04 08:51:00,33.3,17.6,30.56,North,360,3.0,6.0,52,0.00,,CLR,0.00,362.00,VWS V14.01,2013-11-04 13:51:00,
2013-11-04 08:55:00,33.4,17.2,30.56,NE,46,10.0,10.0,51,0.00,,CLR,0.00,362.00,VWS V14.01,2013-11-04 13:55:00,
2013-11-04 08:56:00,33.4,16.8,30.56,NE,47,3.0,11.0,50,0.00,,CLR,0.00,373.00,VWS V14.01,2013-11-04 13:56:00,
2013-11-04 09:00:00,33.4,16.8,30.56,NE,39,6.0,11.0,50,0.00,,CLR,0.00,373.00,VWS V14.01,2013-11-04 14:00:00,
2013-11-04 09:01:00,33.6,17.0,30.55,NNE,12,5.0,10.0,50,0.00,,CLR,0.00,381.00,VWS V14.01,2013-11-04 14:01:00,
2013-11-04 09:05:00,33.7,16.6,30.55,North,5,8.0,10.0,49,0.00,,CLR,0.00,381.00,VWS V14.01,2013-11-04 14:05:00,
2013-11-04 09:06:00,33.7,16.6,30.56,North,5,11.0,11.0,49,0.00,,CLR,0.00,390.00,VWS V14.01,2013-11-04 14:06:00,
2013-11-04 09:10:00,33.7,16.6,30.56,NNE,22,7.0,11.0,49,0.00,,CLR,0.00,392.00,VWS V14.01,2013-11-04 14:10:00,
2013-11-04 09:11:00,33.7,16.1,30.56,NNE,29,3.0,12.0,48,0.00,,CLR,0.00,399.00,VWS V14.01,2013-11-04 14:11:00,
2013-11-04 09:15:00,33.7,16.1,30.56,NNE,14,6.0,12.0,48,0.00,,CLR,0.00,401.00,VWS V14.01,2013-11-04 14:15:00,
2013-11-04 09:16:00,34.2,17.0,30.56,ENE,77,4.0,9.0,49,0.00,,CLR,0.00,408.00,VWS V14.01,2013-11-04 14:16:00,
2013-11-04 09:20:00,34.2,17.0,30.56,East,88,2.0,9.0,49,0.00,,CLR,0.00,410.00,VWS V14.01,2013-11-04 14:20:00,
2013-11-04 09:21:00,34.6,16.9,30.56,East,84,2.0,10.0,48,0.00,,CLR,0.00,418.00,VWS V14.01,2013-11-04 14:21:00,
2013-11-04 09:25:00,34.6,16.9,30.56,East,84,2.0,10.0,48,0.00,,CLR,0.00,418.00,VWS V14.01,2013-11-04 14:25:00,
2013-11-04 09:26:00,34.9,16.2,30.56,NNE,30,0.0,8.0,46,0.00,,CLR,0.00,425.00,VWS V14.01,2013-11-04 14:26:00,
2013-11-04 09:30:00,34.9,16.2,30.56,ENE,68,6.0,8.0,46,0.00,,CLR,0.00,425.00,VWS V14.01,2013-11-04 14:30:00,
2013-11-04 09:31:00,34.9,16.7,30.56,NW,319,3.0,7.0,47,0.00,,CLR,0.00,432.00,VWS V14.01,2013-11-04 14:31:00,
2013-11-04 09:35:00,34.9,16.2,30.56,NW,319,3.0,7.0,46,0.00,,CLR,0.00,432.00,VWS V14.01,2013-11-04 14:35:00,
2013-11-04 09:36:00,35.4,17.7,30.56,NNE,32,8.0,10.0,48,0.00,,CLR,0.00,441.00,VWS V14.01,2013-11-04 14:36:00,
2013-11-04 09:40:00,35.4,16.7,30.56,NE,37,6.0,10.0,46,0.00,,CLR,0.00,441.00,VWS V14.01,2013-11-04 14:40:00,
2013-11-04 09:41:00,35.4,16.2,30.56,ENE,63,4.0,8.0,45,0.00,,CLR,0.00,448.00,VWS V14.01,2013-11-04 14:41:00,
2013-11-04 09:45:00,35.4,16.2,30.56,ENE,64,3.0,8.0,45,0.00,,CLR,0.00,448.00,VWS V14.01,2013-11-04 14:45:00,
2013-11-04 09:46:00,35.9,17.1,30.56,North,11,2.0,6.0,46,0.00,,CLR,0.00,455.00,VWS V14.01,2013-11-04 14:46:00,
2013-11-04 09:50:00,35.9,17.1,30.56,North,11,2.0,6.0,46,0.00,,CLR,0.00,455.00,VWS V14.01,2013-11-04 14:50:00,
2013-11-04 09:51:00,36.1,15.2,30.56,ENE,70,8.0,12.0,42,0.00,,CLR,0.00,462.00,VWS V14.01,2013-11-04 14:51:00,
2013-11-04 09:55:00,36.1,15.2,30.56,ENE,70,8.0,12.0,42,0.00,,CLR,0.00,462.00,VWS V14.01,2013-11-04 14:55:00,
2013-11-04 09:56:00,35.9,15.1,30.56,NNE,31,3.0,11.0,42,0.00,,CLR,0.00,468.00,VWS V14.01,2013-11-04 14:56:00,
2013-11-04 10:00:00,35.9,15.1,30.56,NNE,31,3.0,11.0,42,0.00,,CLR,0.00,468.00,VWS V14.01,2013-11-04 15:00:00,
2013-11-04 10:02:00,36.2,15.3,30.56,East,84,6.0,8.0,42,0.00,,CLR,0.00,473.00,VWS V14.01,2013-11-04 15:02:00,
2013-11-04 10:05:00,36.2,15.3,30.56,East,80,8.0,11.0,42,0.00,,CLR,0.00,473.00,VWS V14.01,2013-11-04 15:05:00,
2013-11-04 10:07:00,36.4,16.0,30.56,NNE,24,8.0,8.0,43,0.00,,CLR,0.00,478.00,VWS V14.01,2013-11-04 15:07:00,
2013-11-04 10:10:00,36.3,16.0,30.56,NNE,14,7.0,10.0,43,0.00,,CLR,0.00,478.00,VWS V14.01,2013-11-04 15:10:00,
2013-11-04 10:12:00,36.6,15.7,30.56,NNE,21,4.0,4.0,42,0.00,,CLR,0.00,483.00,VWS V14.01,2013-11-04 15:12:00,
2013-11-04 10:15:00,36.6,15.7,30.56,ENE,78,1.0,8.0,42,0.00,,CLR,0.00,483.00,VWS V14.01,2013-11-04 15:15:00,
2013-11-04 10:17:00,36.5,15.1,30.56,NNW,346,5.0,5.0,41,0.00,,CLR,0.00,489.00,VWS V14.01,2013-11-04 15:17:00,
2013-11-04 10:20:00,36.5,15.1,30.56,North,5,2.0,10.0,41,0.00,,CLR,0.00,489.00,VWS V14.01,2013-11-04 15:20:00,
2013-11-04 10:22:00,36.6,15.1,30.56,NE,46,6.0,11.0,41,0.00,,CLR,0.00,494.00,VWS V14.01,2013-11-04 15:22:00,
2013-11-04 10:25:00,36.6,15.7,30.56,NE,39,3.0,10.0,42,0.00,,CLR,0.00,494.00,VWS V14.01,2013-11-04 15:25:00,
2013-11-04 10:27:00,36.6,15.1,30.56,ESE,109,7.0,7.0,41,0.00,,CLR,0.00,496.00,VWS V14.01,2013-11-04 15:27:00,
2013-11-04 10:30:00,36.6,15.1,30.57,East,84,6.0,12.0,41,0.00,,CLR,0.00,496.00,VWS V14.01,2013-11-04 15:30:00,
2013-11-04 10:32:00,36.4,15.0,30.57,ENE,78,10.0,12.0,41,0.00,,CLR,0.00,501.00,VWS V14.01,2013-11-04 15:32:00,
2013-11-04 10:35:00,36.5,15.1,30.57,East,85,8.0,11.0,41,0.00,,CLR,0.00,501.00,VWS V14.01,2013-11-04 15:35:00,
2013-11-04 10:37:00,36.1,15.8,30.57,NE,48,2.0,8.0,43,0.00,,CLR,0.00,504.00,VWS V14.01,2013-11-04 15:37:00,
2013-11-04 10:40:00,36.0,15.7,30.57,ENE,71,8.0,12.0,43,0.00,,CLR,0.00,503.00,VWS V14.01,2013-11-04 15:40:00,
2013-11-04 10:42:00,36.7,15.2,30.57,NNE,19,7.0,7.0,41,0.00,,CLR,0.00,506.00,VWS V14.01,2013-11-04 15:42:00,
2013-11-04 10:45:00,36.6,15.1,30.57,NE,56,3.0,10.0,41,0.00,,CLR,0.00,506.00,VWS V14.01,2013-11-04 15:45:00,
2013-11-04 10:47:00,36.6,14.6,30.57,NNE,15,6.0,8.0,40,0.00,,CLR,0.00,508.00,VWS V14.01,2013-11-04 15:47:00,
2013-11-04 10:50:00,36.6,14.6,30.57,NNE,18,8.0,10.0,40,0.00,,CLR,0.00,508.00,VWS V14.01,2013-11-04 15:50:00,
2013-11-04 10:52:00,37.4,16.4,30.57,East,79,6.0,6.0,42,0.00,,CLR,0.00,512.00,VWS V14.01,2013-11-04 15:52:00,
2013-11-04 10:55:00,37.2,16.2,30.57,NE,48,5.0,8.0,42,0.00,,CLR,0.00,510.00,VWS V14.01,2013-11-04 15:55:00,
2013-11-04 10:57:00,37.6,17.1,30.57,NE,49,4.0,6.0,43,0.00,,CLR,0.00,512.00,VWS V14.01,2013-11-04 15:57:00,
2013-11-04 11:00:00,37.6,16.6,30.57,NNE,32,4.0,15.0,42,0.00,,CLR,0.00,513.00,VWS V14.01,2013-11-04 16:00:00,
2013-11-04 11:02:00,37.7,15.6,30.57,North,5,4.0,8.0,40,0.00,,CLR,0.00,515.00,VWS V14.01,2013-11-04 16:02:00,
2013-11-04 11:05:00,37.8,15.7,30.57,NNE,15,8.0,9.0,40,0.00,,CLR,0.00,515.00,VWS V14.01,2013-11-04 16:05:00,
2013-11-04 11:07:00,37.3,14.0,30.57,North,5,4.0,6.0,38,0.00,,CLR,0.00,515.00,VWS V14.01,2013-11-04 16:07:00,
2013-11-04 11:10:00,37.5,14.2,30.57,North,5,4.0,9.0,38,0.00,,CLR,0.00,515.00,VWS V14.01,2013-11-04 16:10:00,
2013-11-04 11:13:00,37.0,14.9,30.57,North,5,6.0,7.0,40,0.00,,CLR,0.00,515.00,VWS V14.01,2013-11-04 16:13:00,
2013-11-04 11:15:00,37.0,14.9,30.57,ENE,66,1.0,6.0,40,0.00,,CLR,0.00,515.00,VWS V14.01,2013-11-04 16:15:00,
2013-11-04 11:18:00,37.4,15.3,30.57,ESE,123,4.0,6.0,40,0.00,,CLR,0.00,515.00,VWS V14.01,2013-11-04 16:18:00,
2013-11-04 11:20:00,37.3,15.2,30.57,NE,47,4.0,8.0,40,0.00,,CLR,0.00,515.00,VWS V14.01,2013-11-04 16:20:00,
2013-11-04 11:23:00,37.7,15.6,30.57,North,5,4.0,6.0,40,0.00,,CLR,0.00,515.00,VWS V14.01,2013-11-04 16:23:00,
2013-11-04 11:25:00,37.7,15.6,30.57,East,83,3.0,10.0,40,0.00,,CLR,0.00,515.00,VWS V14.01,2013-11-04 16:25:00,
2013-11-04 11:28:00,37.8,15.7,30.57,North,5,9.0,10.0,40,0.00,,CLR,0.00,513.00,VWS V14.01,2013-11-04 16:28:00,
2013-11-04 11:30:00,37.8,15.7,30.57,NE,40,6.0,12.0,40,0.00,,CLR,0.00,513.00,VWS V14.01,2013-11-04 16:30:00,
2013-11-04 11:33:00,37.8,15.1,30.57,NNE,31,2.0,5.0,39,0.00,,CLR,0.00,513.00,VWS V14.01,2013-11-04 16:33:00,
2013-11-04 11:35:00,37.8,15.1,30.57,NNW,335,4.0,10.0,39,0.00,,CLR,0.00,513.00,VWS V14.01,2013-11-04 16:35:00,
2013-11-04 11:38:00,38.2,15.4,30.57,NNW,345,6.0,6.0,39,0.00,,CLR,0.00,512.00,VWS V14.01,2013-11-04 16:38:00,
2013-11-04 11:40:00,38.1,15.9,30.57,NNW,329,2.0,7.0,40,0.00,,CLR,0.00,510.00,VWS V14.01,2013-11-04 16:40:00,
2013-11-04 11:43:00,38.4,16.2,30.57,ENE,63,5.0,11.0,40,0.00,,CLR,0.00,510.00,VWS V14.01,2013-11-04 16:43:00,
2013-11-04 11:45:00,38.4,15.6,30.57,WNW,298,4.0,6.0,39,0.00,,CLR,0.00,510.00,VWS V14.01,2013-11-04 16:45:00,
2013-11-04 11:48:00,38.1,15.4,30.57,North,360,4.0,5.0,39,0.00,,CLR,0.00,506.00,VWS V14.01,2013-11-04 16:48:00,
2013-11-04 11:50:00,38.2,14.2,30.58,North,9,5.0,11.0,37,0.00,,CLR,0.00,510.00,VWS V14.01,2013-11-04 16:50:00,
2013-11-04 11:53:00,38.2,14.2,30.57,ENE,57,4.0,8.0,37,0.00,,CLR,0.00,504.00,VWS V14.01,2013-11-04 16:53:00,
2013-11-04 11:55:00,38.2,14.8,30.57,NNE,22,7.0,9.0,38,0.00,,CLR,0.00,504.00,VWS V14.01,2013-11-04 16:55:00,
2013-11-04 11:58:00,38.1,14.1,30.57,North,10,4.0,5.0,37,0.00,,CLR,0.00,499.00,VWS V14.01,2013-11-04 16:58:00,
2013-11-04 12:00:00,38.1,14.1,30.57,NNE,17,2.0,8.0,37,0.00,,CLR,0.00,501.00,VWS V14.01,2013-11-04 17:00:00,
2013-11-04 12:03:00,38.2,15.4,30.57,NE,51,5.0,10.0,39,0.00,,CLR,0.00,497.00,VWS V14.01,2013-11-04 17:03:00,
2013-11-04 12:05:00,38.1,14.1,30.57,NE,38,1.0,6.0,37,0.00,,CLR,0.00,499.00,VWS V14.01,2013-11-04 17:05:00,
2013-11-04 12:08:00,38.1,14.1,30.57,NE,56,4.0,5.0,37,0.00,,CLR,0.00,461.00,VWS V14.01,2013-11-04 17:08:00,
2013-11-04 12:10:00,38.1,14.1,30.57,ENE,61,3.0,10.0,37,0.00,,CLR,0.00,485.00,VWS V14.01,2013-11-04 17:10:00,
2013-11-04 12:13:00,38.2,15.4,30.57,NE,46,2.0,5.0,39,0.00,,CLR,0.00,302.00,VWS V14.01,2013-11-04 17:13:00,
2013-11-04 12:15:00,38.1,14.8,30.57,North,355,4.0,7.0,38,0.00,,CLR,0.00,367.00,VWS V14.01,2013-11-04 17:15:00,
2013-11-04 12:18:00,38.9,16.6,30.56,East,91,7.0,11.0,40,0.00,,CLR,0.00,111.00,VWS V14.01,2013-11-04 17:18:00,
2013-11-04 12:20:00,38.5,15.1,30.56,ENE,74,3.0,7.0,38,0.00,,CLR,0.00,199.00,VWS V14.01,2013-11-04 17:20:00,
2013-11-04 12:24:00,38.7,15.3,30.56,East,96,4.0,8.0,38,0.00,,CLR,0.00,33.00,VWS V14.01,2013-11-04 17:24:00,
2013-11-04 12:25:00,38.9,14.9,30.56,East,84,5.0,11.0,37,0.00,,CLR,0.00,56.00,VWS V14.01,2013-11-04 17:25:00,
2013-11-04 12:29:00,38.5,15.1,30.56,ENE,57,4.0,8.0,38,0.00,,CLR,0.00,30.00,VWS V14.01,2013-11-04 17:29:00,
2013-11-04 12:30:00,38.6,15.2,30.56,ESE,105,6.0,11.0,38,0.00,,CLR,0.00,30.00,VWS V14.01,2013-11-04 17:30:00,
2013-11-04 12:34:00,38.7,14.7,30.56,NNW,338,2.0,8.0,37,0.00,,CLR,0.00,30.00,VWS V14.01,2013-11-04 17:34:00,
2013-11-04 12:35:00,38.6,15.2,30.55,NNE,18,6.0,8.0,38,0.00,,CLR,0.00,30.00,VWS V14.01,2013-11-04 17:35:00,
2013-11-04 12:39:00,38.8,14.8,30.56,NE,34,1.0,6.0,37,0.00,,CLR,0.00,30.00,VWS V14.01,2013-11-04 17:39:00,
2013-11-04 12:40:00,38.8,14.8,30.56,North,9,6.0,8.0,37,0.00,,CLR,0.00,30.00,VWS V14.01,2013-11-04 17:40:00,
2013-11-04 12:44:00,39.3,14.6,30.56,North,355,5.0,6.0,36,0.00,,CLR,0.00,30.00,VWS V14.01,2013-11-04 17:44:00,
2013-11-04 12:45:00,39.0,14.9,30.55,WSW,239,1.0,6.0,37,0.00,,CLR,0.00,30.00,VWS V14.01,2013-11-04 17:45:00,
2013-11-04 12:49:00,39.6,14.9,30.55,NE,51,6.0,7.0,36,0.00,,CLR,0.00,30.00,VWS V14.01,2013-11-04 17:49:00,
2013-11-04 12:50:00,39.5,14.1,30.56,NW,310,2.0,6.0,35,0.00,,CLR,0.00,30.00,VWS V14.01,2013-11-04 17:50:00,
2013-11-04 12:54:00,38.9,14.9,30.55,ESE,106,6.0,12.0,37,0.00,,CLR,0.00,30.00,VWS V14.01,2013-11-04 17:54:00,
2013-11-04 12:55:00,39.2,15.7,30.55,ESE,105,9.0,11.0,38,0.00,,CLR,0.00,30.00,VWS V14.01,2013-11-04 17:55:00,
2013-11-04 12:59:00,39.0,14.3,30.55,NNW,335,6.0,8.0,36,0.00,,CLR,0.00,30.00,VWS V14.01,2013-11-04 17:59:00,
2013-11-04 13:00:00,38.8,15.4,30.56,East,93,0.0,12.0,38,0.00,,CLR,0.00,30.00,VWS V14.01,2013-11-04 18:00:00,
2013-11-04 13:04:00,39.7,14.9,30.55,NW,306,4.0,6.0,36,0.00,,CLR,0.00,30.00,VWS V14.01,2013-11-04 18:04:00,
2013-11-04 13:05:00,39.2,15.1,30.55,NNW,338,6.0,8.0,37,0.00,,CLR,0.00,30.00,VWS V14.01,2013-11-04 18:05:00,
2013-11-04 13:09:00,39.7,14.3,30.55,NNW,344,4.0,6.0,35,0.00,,CLR,0.00,30.00,VWS V14.01,2013-11-04 18:09:00,
2013-11-04 13:10:00,39.8,15.0,30.55,NW,315,5.0,6.0,36,0.00,,CLR,0.00,30.00,VWS V14.01,2013-11-04 18:10:00,
2013-11-04 13:14:00,39.6,14.2,30.55,North,355,4.0,6.0,35,0.00,,CLR,0.00,30.00,VWS V14.01,2013-11-04 18:14:00,
2013-11-04 13:15:00,39.6,14.2,30.55,North,360,5.0,7.0,35,0.00,,CLR,0.00,30.00,VWS V14.01,2013-11-04 18:15:00,
2013-11-04 13:19:00,39.5,14.8,30.55,NE,56,0.0,3.0,36,0.00,,CLR,0.00,30.00,VWS V14.01,2013-11-04 18:19:00,
2013-11-04 13:20:00,39.5,13.5,30.55,North,5,3.0,6.0,34,0.00,,CLR,0.00,30.00,VWS V14.01,2013-11-04 18:20:00,
2013-11-04 13:24:00,39.5,14.1,30.55,SW,232,2.0,8.0,35,0.00,,CLR,0.00,30.00,VWS V14.01,2013-11-04 18:24:00,
2013-11-04 13:25:00,39.7,14.9,30.55,ENE,62,7.0,7.0,36,0.00,,CLR,0.00,30.00,VWS V14.01,2013-11-04 18:25:00,
2013-11-04 13:29:00,40.0,14.6,30.56,North,355,4.0,7.0,35,0.00,,CLR,0.00,28.00,VWS V14.01,2013-11-04 18:29:00,
2013-11-04 13:30:00,39.7,14.9,30.55,North,355,3.0,8.0,36,0.00,,CLR,0.00,30.00,VWS V14.01,2013-11-04 18:30:00,
2013-11-04 13:35:00,39.9,13.8,30.55,NNE,24,7.0,8.0,34,0.00,,CLR,0.00,28.00,VWS V14.01,2013-11-04 18:35:00,
2013-11-04 13:40:00,39.7,14.3,30.55,North,350,1.0,5.0,35,0.00,,CLR,0.00,28.00,VWS V14.01,2013-11-04 18:40:00,
2013-11-04 13:45:00,40.2,15.4,30.55,WNW,302,3.0,5.0,36,0.00,,CLR,0.00,28.00,VWS V14.01,2013-11-04 18:45:00,
2013-11-04 13:50:00,40.6,14.4,30.55,NNW,327,3.0,7.0,34,0.00,,CLR,0.00,30.00,VWS V14.01,2013-11-04 18:50:00,
2013-11-04 13:55:00,40.3,14.8,30.55,NNE,14,4.0,11.0,35,0.00,,CLR,0.00,30.00,VWS V14.01,2013-11-04 18:55:00,
2013-11-04 14:00:00,40.4,14.9,30.55,North,5,3.0,8.0,35,0.00,,CLR,0.00,46.00,VWS V14.01,2013-11-04 19:00:00,
2013-11-04 14:05:00,40.3,14.8,30.55,NNW,341,0.0,7.0,35,0.00,,CLR,0.00,113.00,VWS V14.01,2013-11-04 19:05:00,
2013-11-04 14:10:00,40.5,14.4,30.56,NW,323,4.0,6.0,34,0.00,,CLR,0.00,183.00,VWS V14.01,2013-11-04 19:10:00,
2013-11-04 14:15:00,40.6,15.8,30.55,NNW,344,0.0,5.0,36,0.00,,CLR,0.00,262.00,VWS V14.01,2013-11-04 19:15:00,
2013-11-04 14:20:00,40.7,13.9,30.56,ENE,71,6.0,7.0,33,0.00,,CLR,0.00,283.00,VWS V14.01,2013-11-04 19:20:00,
2013-11-04 14:25:00,40.2,13.4,30.56,North,355,5.0,8.0,33,0.00,,CLR,0.00,274.00,VWS V14.01,2013-11-04 19:25:00,
2013-11-04 14:30:00,40.1,13.3,30.56,NE,48,5.0,7.0,33,0.00,,CLR,0.00,250.00,VWS V14.01,2013-11-04 19:30:00,
2013-11-04 14:35:00,40.0,13.2,30.56,NNE,25,7.0,7.0,33,0.00,,CLR,0.00,251.00,VWS V14.01,2013-11-04 19:35:00,
2013-11-04 14:40:00,40.3,14.8,30.56,NE,45,4.0,6.0,35,0.00,,CLR,0.00,236.00,VWS V14.01,2013-11-04 19:40:00,
2013-11-04 14:45:00,40.7,15.2,30.56,NE,45,4.0,5.0,35,0.00,,CLR,0.00,218.00,VWS V14.01,2013-11-04 19:45:00,
2013-11-04 14:50:00,40.8,15.3,30.56,NNE,26,5.0,6.0,35,0.00,,CLR,0.00,214.00,VWS V14.01,2013-11-04 19:50:00,
2013-11-04 14:51:00,40.6,14.4,30.56,NE,49,1.0,5.0,34,0.00,,CLR,0.00,206.00,VWS V14.01,2013-11-04 19:51:00,
2013-11-04 14:55:00,40.5,14.4,30.56,NE,36,2.0,5.0,34,0.00,,CLR,0.00,206.00,VWS V14.01,2013-11-04 19:55:00,
2013-11-04 14:56:00,40.5,14.4,30.56,NNE,28,0.0,6.0,34,0.00,,CLR,0.00,200.00,VWS V14.01,2013-11-04 19:56:00,
2013-11-04 15:00:00,40.5,14.4,30.56,NNE,28,0.0,6.0,34,0.00,,CLR,0.00,197.00,VWS V14.01,2013-11-04 20:00:00,
2013-11-04 15:01:00,40.8,14.6,30.56,ESE,119,2.0,5.0,34,0.00,,CLR,0.00,186.00,VWS V14.01,2013-11-04 20:01:00,
2013-11-04 15:05:00,40.9,14.7,30.56,ESE,121,4.0,5.0,34,0.00,,CLR,0.00,183.00,VWS V14.01,2013-11-04 20:05:00,
2013-11-04 15:06:00,40.8,14.6,30.57,ESE,120,1.0,4.0,34,0.00,,CLR,0.00,171.00,VWS V14.01,2013-11-04 20:06:00,
2013-11-04 15:10:00,40.7,15.2,30.57,ESE,121,1.0,4.0,35,0.00,,CLR,0.00,171.00,VWS V14.01,2013-11-04 20:10:00,
2013-11-04 15:11:00,40.6,14.4,30.56,NE,49,5.0,6.0,34,0.00,,CLR,0.00,153.00,VWS V14.01,2013-11-04 20:11:00,
2013-11-04 15:15:00,40.5,13.7,30.56,NNE,28,3.0,6.0,33,0.00,,CLR,0.00,153.00,VWS V14.01,2013-11-04 20:15:00,
2013-11-04 15:16:00,40.5,14.4,30.57,ENE,71,5.0,5.0,34,0.00,,CLR,0.00,142.00,VWS V14.01,2013-11-04 20:16:00,
2013-11-04 15:20:00,40.5,14.4,30.57,ENE,69,3.0,5.0,34,0.00,,CLR,0.00,142.00,VWS V14.01,2013-11-04 20:20:00,
2013-11-04 15:21:00,40.2,14.1,30.56,NE,36,3.0,5.0,34,0.00,,CLR,0.00,97.00,VWS V14.01,2013-11-04 20:21:00,
2013-11-04 15:25:00,40.1,14.0,30.56,NE,37,4.0,5.0,34,0.00,,CLR,0.00,97.00,VWS V14.01,2013-11-04 20:25:00,
2013-11-04 15:26:00,40.0,13.9,30.57,NE,45,2.0,5.0,34,0.00,,CLR,0.00,90.00,VWS V14.01,2013-11-04 20:26:00,
2013-11-04 15:30:00,40.0,13.9,30.57,NE,45,1.0,5.0,34,0.00,,CLR,0.00,88.00,VWS V14.01,2013-11-04 20:30:00,
2013-11-04 15:31:00,40.1,14.0,30.57,NE,54,2.0,3.0,34,0.00,,CLR,0.00,81.00,VWS V14.01,2013-11-04 20:31:00,
2013-11-04 15:35:00,40.1,14.0,30.57,NE,54,1.0,3.0,34,0.00,,CLR,0.00,74.00,VWS V14.01,2013-11-04 20:35:00,
2013-11-04 15:36:00,40.1,14.0,30.57,ENE,69,4.0,4.0,34,0.00,,CLR,0.00,65.00,VWS V14.01,2013-11-04 20:36:00,
2013-11-04 15:40:00,40.1,14.0,30.57,ENE,67,3.0,4.0,34,0.00,,CLR,0.00,58.00,VWS V14.01,2013-11-04 20:40:00,
2013-11-04 15:41:00,39.8,13.7,30.57,ENE,68,1.0,4.0,34,0.00,,CLR,0.00,46.00,VWS V14.01,2013-11-04 20:41:00,
2013-11-04 15:45:00,39.7,13.6,30.57,ENE,68,0.0,4.0,34,0.00,,CLR,0.00,46.00,VWS V14.01,2013-11-04 20:45:00,
2013-11-04 15:46:00,39.6,13.6,30.57,ENE,68,1.0,2.0,34,0.00,,CLR,0.00,28.00,VWS V14.01,2013-11-04 20:46:00,
2013-11-04 15:50:00,39.6,13.6,30.57,ENE,68,1.0,2.0,34,0.00,,CLR,0.00,28.00,VWS V14.01,2013-11-04 20:50:00,
2013-11-04 15:51:00,39.4,13.4,30.57,ENE,69,0.0,1.0,34,0.00,,CLR,0.00,23.00,VWS V14.01,2013-11-04 20:51:00,
2013-11-04 15:55:00,39.4,13.4,30.57,ENE,69,0.0,1.0,34,0.00,,CLR,0.00,23.00,VWS V14.01,2013-11-04 20:55:00,
2013-11-04 15:56:00,39.2,13.9,30.57,ENE,68,1.0,4.0,35,0.00,,CLR,0.00,16.00,VWS V14.01,2013-11-04 20:56:00,
2013-11-04 16:00:00,39.2,13.9,30.57,ENE,68,1.0,4.0,35,0.00,,CLR,0.00,16.00,VWS V14.01,2013-11-04 21:00:00,
2013-11-04 16:01:00,39.1,13.8,30.57,ENE,69,0.0,3.0,35,0.00,,CLR,0.00,16.00,VWS V14.01,2013-11-04 21:01:00,
2013-11-04 16:05:00,39.1,13.8,30.57,ENE,69,0.0,3.0,35,0.00,,CLR,0.00,16.00,VWS V14.01,2013-11-04 21:05:00,
2013-11-04 16:06:00,39.0,14.3,30.58,ENE,68,0.0,1.0,36,0.00,,CLR,0.00,14.00,VWS V14.01,2013-11-04 21:06:00,
2013-11-04 16:10:00,39.0,14.3,30.58,ENE,68,0.0,1.0,36,0.00,,CLR,0.00,14.00,VWS V14.01,2013-11-04 21:10:00,
2013-11-04 16:11:00,38.9,14.2,30.58,ENE,69,0.0,0.0,36,0.00,,CLR,0.00,11.00,VWS V14.01,2013-11-04 21:11:00,
2013-11-04 16:15:00,38.9,14.2,30.58,ENE,69,0.0,0.0,36,0.00,,CLR,0.00,11.00,VWS V14.01,2013-11-04 21:15:00,
2013-11-04 16:16:00,38.8,14.8,30.58,ENE,69,0.0,1.0,37,0.00,,CLR,0.00,11.00,VWS V14.01,2013-11-04 21:16:00,
2013-11-04 16:20:00,38.8,14.8,30.58,ENE,69,0.0,1.0,37,0.00,,CLR,0.00,11.00,VWS V14.01,2013-11-04 21:20:00,
2013-11-04 16:21:00,38.6,15.2,30.58,ENE,69,0.0,0.0,38,0.00,,CLR,0.00,7.00,VWS V14.01,2013-11-04 21:21:00,
2013-11-04 16:25:00,38.6,15.2,30.58,ENE,69,0.0,0.0,38,0.00,,CLR,0.00,7.00,VWS V14.01,2013-11-04 21:25:00,
2013-11-04 16:26:00,38.2,16.0,30.59,ENE,69,0.0,0.0,40,0.00,,CLR,0.00,5.00,VWS V14.01,2013-11-04 21:26:00,
2013-11-04 16:30:00,38.2,16.0,30.59,ENE,69,0.0,0.0,40,0.00,,CLR,0.00,5.00,VWS V14.01,2013-11-04 21:30:00,
2013-11-04 16:32:00,37.8,16.2,30.58,ENE,68,0.0,0.0,41,0.00,,CLR,0.00,0.00,VWS V14.01,2013-11-04 21:32:00,
2013-11-04 16:35:00,37.9,15.8,30.58,ENE,69,0.0,0.0,40,0.00,,CLR,0.00,0.00,VWS V14.01,2013-11-04 21:35:00,
2013-11-04 16:37:00,37.4,15.3,30.59,ENE,69,0.0,0.0,40,0.00,,CLR,0.00,0.00,VWS V14.01,2013-11-04 21:37:00,
2013-11-04 16:40:00,37.4,15.3,30.59,ENE,69,0.0,0.0,40,0.00,,CLR,0.00,0.00,VWS V14.01,2013-11-04 21:40:00,
2013-11-04 16:42:00,37.0,16.1,30.58,ENE,68,0.0,0.0,42,0.00,,CLR,0.00,0.00,VWS V14.01,2013-11-04 21:42:00,
2013-11-04 16:45:00,37.0,16.1,30.59,ENE,68,0.0,0.0,42,0.00,,CLR,0.00,0.00,VWS V14.01,2013-11-04 21:45:00,
2013-11-04 16:47:00,36.5,16.1,30.59,ENE,68,0.0,0.0,43,0.00,,CLR,0.00,0.00,VWS V14.01,2013-11-04 21:47:00,
2013-11-04 16:50:00,36.6,15.7,30.58,ENE,68,0.0,0.0,42,0.00,,CLR,0.00,0.00,VWS V14.01,2013-11-04 21:50:00,
2013-11-04 16:52:00,36.1,16.8,30.58,ENE,68,0.0,0.0,45,0.00,,CLR,0.00,0.00,VWS V14.01,2013-11-04 21:52:00,
2013-11-04 16:55:00,36.1,16.8,30.58,ENE,68,0.0,0.0,45,0.00,,CLR,0.00,0.00,VWS V14.01,2013-11-04 21:55:00,
2013-11-04 16:57:00,35.6,16.9,30.59,ENE,68,0.0,0.0,46,0.00,,CLR,0.00,0.00,VWS V14.01,2013-11-04 21:57:00,
2013-11-04 17:00:00,35.7,17.0,30.58,ENE,69,0.0,0.0,46,0.00,,CLR,0.00,0.00,VWS V14.01,2013-11-04 22:00:00,
2013-11-04 17:02:00,35.2,16.5,30.58,ENE,68,0.0,0.0,46,0.00,,CLR,0.00,0.00,VWS V14.01,2013-11-04 22:02:00,
2013-11-04 17:05:00,35.3,16.6,30.58,ENE,69,0.0,0.0,46,0.00,,CLR,0.00,0.00,VWS V14.01,2013-11-04 22:05:00,
2013-11-04 17:07:00,34.8,16.6,30.59,ENE,68,0.0,0.0,47,0.00,,CLR,0.00,0.00,VWS V14.01,2013-11-04 22:07:00,
2013-11-04 17:10:00,34.8,16.6,30.58,ENE,69,0.0,0.0,47,0.00,,CLR,0.00,0.00,VWS V14.01,2013-11-04 22:10:00,
2013-11-04 17:12:00,34.2,16.6,30.59,ENE,69,0.0,0.0,48,0.00,,CLR,0.00,0.00,VWS V14.01,2013-11-04 22:12:00,
2013-11-04 17:15:00,34.3,16.7,30.59,ENE,68,0.0,0.0,48,0.00,,CLR,0.00,0.00,VWS V14.01,2013-11-04 22:15:00,
2013-11-04 17:17:00,33.9,16.8,30.59,ENE,68,0.0,0.0,49,0.00,,CLR,0.00,0.00,VWS V14.01,2013-11-04 22:17:00,
2013-11-04 17:20:00,34.0,16.9,30.59,ENE,69,0.0,0.0,49,0.00,,CLR,0.00,0.00,VWS V14.01,2013-11-04 22:20:00,
2013-11-04 17:23:00,33.7,17.0,30.59,ENE,68,0.0,0.0,50,0.00,,CLR,0.00,0.00,VWS V14.01,2013-11-04 22:23:00,
2013-11-04 17:25:00,33.7,17.0,30.60,ENE,68,0.0,0.0,50,0.00,,CLR,0.00,0.00,VWS V14.01,2013-11-04 22:25:00,
2013-11-04 17:28:00,33.2,16.6,30.59,ENE,77,1.0,3.0,50,0.00,,CLR,0.00,0.00,VWS V14.01,2013-11-04 22:28:00,
2013-11-04 17:30:00,33.3,16.7,30.59,ENE,69,1.0,1.0,50,0.00,,CLR,0.00,0.00,VWS V14.01,2013-11-04 22:30:00,
2013-11-04 17:33:00,32.9,16.8,30.60,ENE,76,0.0,0.0,51,0.00,,CLR,0.00,0.00,VWS V14.01,2013-11-04 22:33:00,
2013-11-04 17:35:00,33.0,17.3,30.60,ENE,76,0.0,3.0,52,0.00,,CLR,0.00,0.00,VWS V14.01,2013-11-04 22:35:00,
2013-11-04 17:38:00,32.6,16.9,30.60,ENE,76,0.0,0.0,52,0.00,,CLR,0.00,0.00,VWS V14.01,2013-11-04 22:38:00,
2013-11-04 17:40:00,32.7,16.6,30.59,ENE,76,0.0,0.0,51,0.00,,CLR,0.00,0.00,VWS V14.01,2013-11-04 22:40:00,
2013-11-04 17:43:00,32.3,17.1,30.60,ENE,76,0.0,1.0,53,0.00,,CLR,0.00,0.00,VWS V14.01,2013-11-04 22:43:00,
2013-11-04 17:45:00,32.4,17.2,30.60,ENE,76,0.0,1.0,53,0.00,,CLR,0.00,0.00,VWS V14.01,2013-11-04 22:45:00,
2013-11-04 17:48:00,32.1,16.9,30.60,ENE,76,0.0,0.0,53,0.00,,CLR,0.00,0.00,VWS V14.01,2013-11-04 22:48:00,
2013-11-04 17:50:00,32.1,16.9,30.60,ENE,77,0.0,1.0,53,0.00,,CLR,0.00,0.00,VWS V14.01,2013-11-04 22:50:00,
2013-11-04 17:53:00,31.9,16.7,30.60,ENE,76,0.0,0.0,53,0.00,,CLR,0.00,0.00,VWS V14.01,2013-11-04 22:53:00,
2013-11-04 17:55:00,31.9,16.7,30.60,ENE,77,0.0,0.0,53,0.00,,CLR,0.00,0.00,VWS V14.01,2013-11-04 22:55:00,
2013-11-04 17:58:00,31.7,17.0,30.60,ENE,77,0.0,0.0,54,0.00,,CLR,0.00,0.00,VWS V14.01,2013-11-04 22:58:00,
2013-11-04 18:00:00,31.8,17.1,30.61,ENE,77,0.0,0.0,54,0.00,,CLR,0.00,0.00,VWS V14.01,2013-11-04 23:00:00,
2013-11-04 18:03:00,31.4,17.5,30.61,ENE,76,0.0,0.0,56,0.00,,CLR,0.00,0.00,VWS V14.01,2013-11-04 23:03:00,
2013-11-04 18:05:00,31.5,17.2,30.61,ENE,76,0.0,1.0,55,0.00,,CLR,0.00,0.00,VWS V14.01,2013-11-04 23:05:00,
2013-11-04 18:08:00,31.3,17.4,30.61,ENE,77,0.0,0.0,56,0.00,,CLR,0.00,0.00,VWS V14.01,2013-11-04 23:08:00,
2013-11-04 18:10:00,31.3,17.4,30.61,ENE,77,0.0,0.0,56,0.00,,CLR,0.00,0.00,VWS V14.01,2013-11-04 23:10:00,
2013-11-04 18:13:00,31.2,17.3,30.61,ENE,76,0.0,0.0,56,0.00,,CLR,0.00,0.00,VWS V14.01,2013-11-04 23:13:00,
2013-11-04 18:15:00,31.2,17.3,30.61,ENE,76,0.0,0.0,56,0.00,,CLR,0.00,0.00,VWS V14.01,2013-11-04 23:15:00,
2013-11-04 18:18:00,31.0,17.6,30.62,ENE,76,0.0,0.0,57,0.00,,CLR,0.00,0.00,VWS V14.01,2013-11-04 23:18:00,
2013-11-04 18:20:00,31.0,17.2,30.62,ENE,76,0.0,0.0,56,0.00,,CLR,0.00,0.00,VWS V14.01,2013-11-04 23:20:00,
2013-11-04 18:23:00,30.8,18.2,30.61,ENE,76,0.0,0.0,59,0.00,,CLR,0.00,0.00,VWS V14.01,2013-11-04 23:23:00,
2013-11-04 18:25:00,30.9,17.9,30.61,ENE,76,0.0,0.0,58,0.00,,CLR,0.00,0.00,VWS V14.01,2013-11-04 23:25:00,
2013-11-04 18:29:00,30.5,17.5,30.62,ENE,76,0.0,0.0,58,0.00,,CLR,0.00,0.00,VWS V14.01,2013-11-04 23:29:00,
2013-11-04 18:30:00,30.6,18.0,30.61,ENE,76,0.0,0.0,59,0.00,,CLR,0.00,0.00,VWS V14.01,2013-11-04 23:30:00,
2013-11-04 18:34:00,30.2,17.6,30.62,ENE,77,0.0,0.0,59,0.00,,CLR,0.00,0.00,VWS V14.01,2013-11-04 23:34:00,
2013-11-04 18:35:00,30.3,17.7,30.62,ENE,76,0.0,0.0,59,0.00,,CLR,0.00,0.00,VWS V14.01,2013-11-04 23:35:00,
2013-11-04 18:39:00,30.0,17.8,30.62,ENE,76,0.0,0.0,60,0.00,,CLR,0.00,0.00,VWS V14.01,2013-11-04 23:39:00,
2013-11-04 18:40:00,30.1,17.5,30.62,ENE,76,0.0,0.0,59,0.00,,CLR,0.00,0.00,VWS V14.01,2013-11-04 23:40:00,
2013-11-04 18:44:00,29.7,17.9,30.62,ENE,77,0.0,0.0,61,0.00,,CLR,0.00,0.00,VWS V14.01,2013-11-04 23:44:00,
2013-11-04 18:45:00,29.8,17.6,30.62,ENE,77,0.0,0.0,60,0.00,,CLR,0.00,0.00,VWS V14.01,2013-11-04 23:45:00,
2013-11-04 18:49:00,29.4,17.6,30.62,ENE,76,0.0,0.0,61,0.00,,CLR,0.00,0.00,VWS V14.01,2013-11-04 23:49:00,
2013-11-04 18:50:00,29.6,17.8,30.62,ENE,76,0.0,0.0,61,0.00,,CLR,0.00,0.00,VWS V14.01,2013-11-04 23:50:00,
2013-11-04 18:54:00,29.1,17.7,30.62,ENE,77,0.0,0.0,62,0.00,,CLR,0.00,0.00,VWS V14.01,2013-11-04 23:54:00,
2013-11-04 18:55:00,29.2,17.4,30.63,ENE,76,0.0,0.0,61,0.00,,CLR,0.00,0.00,VWS V14.01,2013-11-04 23:55:00,
2013-11-04 18:59:00,28.9,17.5,30.62,ENE,76,0.0,0.0,62,0.00,,CLR,0.00,0.00,VWS V14.01,2013-11-04 23:59:00,
2013-11-04 19:00:00,29.0,17.6,30.62,ENE,77,0.0,0.0,62,0.00,,CLR,0.00,0.00,VWS V14.01,2013-11-05 00:00:00,
2013-11-04 19:04:00,28.8,17.8,30.62,ENE,76,0.0,0.0,63,0.00,,CLR,0.00,0.00,VWS V14.01,2013-11-05 00:04:00,
2013-11-04 19:05:00,28.9,17.5,30.62,ENE,76,0.0,0.0,62,0.00,,CLR,0.00,0.00,VWS V14.01,2013-11-05 00:05:00,
2013-11-04 19:09:00,28.8,17.8,30.62,ENE,77,0.0,0.0,63,0.00,,CLR,0.00,0.00,VWS V14.01,2013-11-05 00:09:00,
2013-11-04 19:10:00,28.8,17.8,30.62,ENE,77,0.0,0.0,63,0.00,,CLR,0.00,0.00,VWS V14.01,2013-11-05 00:10:00,
2013-11-04 19:14:00,28.7,18.1,30.62,ENE,76,0.0,0.0,64,0.00,,CLR,0.00,0.00,VWS V14.01,2013-11-05 00:14:00,
2013-11-04 19:15:00,28.7,18.1,30.62,ENE,76,0.0,0.0,64,0.00,,CLR,0.00,0.00,VWS V14.01,2013-11-05 00:15:00,
2013-11-04 19:19:00,28.6,18.0,30.62,ENE,77,0.0,0.0,64,0.00,,CLR,0.00,0.00,VWS V14.01,2013-11-05 00:19:00,
2013-11-04 19:20:00,28.7,18.1,30.62,ENE,76,0.0,0.0,64,0.00,,CLR,0.00,0.00,VWS V14.01,2013-11-05 00:20:00,
2013-11-04 19:25:00,28.5,18.2,30.62,ENE,76,0.0,0.0,65,0.00,,CLR,0.00,0.00,VWS V14.01,2013-11-05 00:25:00,
2013-11-04 19:30:00,28.5,18.6,30.62,ENE,76,0.0,0.0,66,0.00,,CLR,0.00,0.00,VWS V14.01,2013-11-05 00:30:00,
2013-11-04 19:35:00,28.5,18.6,30.62,ENE,77,0.0,0.0,66,0.00,,CLR,0.00,0.00,VWS V14.01,2013-11-05 00:35:00,
2013-11-04 19:40:00,28.4,18.9,30.62,ENE,76,0.0,0.0,67,0.00,,CLR,0.00,0.00,VWS V14.01,2013-11-05 00:40:00,
2013-11-04 19:45:00,28.3,18.8,30.62,ENE,77,0.0,0.0,67,0.00,,CLR,0.00,0.00,VWS V14.01,2013-11-05 00:45:00,
2013-11-04 19:50:00,28.0,18.8,30.61,ENE,76,0.0,0.0,68,0.00,,CLR,0.00,0.00,VWS V14.01,2013-11-05 00:50:00,
2013-11-04 19:55:00,27.8,19.0,30.62,ENE,76,0.0,0.0,69,0.00,,CLR,0.00,0.00,VWS V14.01,2013-11-05 00:55:00,
2013-11-04 20:00:00,27.6,18.8,30.61,ENE,77,0.0,0.0,69,0.00,,CLR,0.00,0.00,VWS V14.01,2013-11-05 01:00:00,
2013-11-04 20:05:00,27.5,19.0,30.62,ENE,76,0.0,0.0,70,0.00,,CLR,0.00,0.00,VWS V14.01,2013-11-05 01:05:00,
2013-11-04 20:10:00,27.5,19.0,30.62,ENE,77,0.0,1.0,70,0.00,,CLR,0.00,0.00,VWS V14.01,2013-11-05 01:10:00,
2013-11-04 20:15:00,27.4,18.9,30.62,ENE,77,0.0,0.0,70,0.00,,CLR,0.00,0.00,VWS V14.01,2013-11-05 01:15:00,
2013-11-04 20:20:00,27.2,18.7,30.63,ENE,77,0.0,0.0,70,0.00,,CLR,0.00,0.00,VWS V14.01,2013-11-05 01:20:00,
2013-11-04 20:25:00,27.2,18.7,30.63,ENE,77,0.0,0.0,70,0.00,,CLR,0.00,0.00,VWS V14.01,2013-11-05 01:25:00,
2013-11-04 20:26:00,27.0,18.9,30.62,ENE,77,0.0,0.0,71,0.00,,CLR,0.00,0.00,VWS V14.01,2013-11-05 01:26:00,
2013-11-04 20:30:00,27.0,18.9,30.62,ENE,76,0.0,0.0,71,0.00,,CLR,0.00,0.00,VWS V14.01,2013-11-05 01:30:00,
2013-11-04 20:31:00,26.9,19.1,30.62,ENE,76,0.0,0.0,72,0.00,,CLR,0.00,0.00,VWS V14.01,2013-11-05 01:31:00,
2013-11-04 20:35:00,26.8,19.0,30.62,ENE,76,0.0,0.0,72,0.00,,CLR,0.00,0.00,VWS V14.01,2013-11-05 01:35:00,
2013-11-04 20:36:00,26.7,19.2,30.62,ENE,77,0.0,0.0,73,0.00,,CLR,0.00,0.00,VWS V14.01,2013-11-05 01:36:00,
2013-11-04 20:40:00,26.7,19.2,30.62,ENE,77,0.0,1.0,73,0.00,,CLR,0.00,0.00,VWS V14.01,2013-11-05 01:40:00,
2013-11-04 20:41:00,26.6,19.4,30.62,ENE,76,0.0,1.0,74,0.00,,CLR,0.00,0.00,VWS V14.01,2013-11-05 01:41:00,
2013-11-04 20:45:00,26.7,19.5,30.62,ENE,77,0.0,1.0,74,0.00,,CLR,0.00,0.00,VWS V14.01,2013-11-05 01:45:00,
2013-11-04 20:46:00,26.7,19.5,30.63,ENE,76,0.0,1.0,74,0.00,,CLR,0.00,0.00,VWS V14.01,2013-11-05 01:46:00,
2013-11-04 20:50:00,26.7,19.5,30.63,ENE,76,0.0,1.0,74,0.00,,CLR,0.00,0.00,VWS V14.01,2013-11-05 01:50:00,
2013-11-04 20:51:00,26.7,19.2,30.62,ENE,76,0.0,1.0,73,0.00,,CLR,0.00,0.00,VWS V14.01,2013-11-05 01:51:00,
2013-11-04 20:55:00,26.7,19.2,30.62,ENE,76,0.0,1.0,73,0.00,,CLR,0.00,0.00,VWS V14.01,2013-11-05 01:55:00,
2013-11-04 20:56:00,26.6,19.4,30.62,ENE,77,0.0,1.0,74,0.00,,CLR,0.00,0.00,VWS V14.01,2013-11-05 01:56:00,
2013-11-04 21:00:00,26.5,19.4,30.62,ENE,76,0.0,1.0,74,0.00,,CLR,0.00,0.00,VWS V14.01,2013-11-05 02:00:00,
2013-11-04 21:01:00,26.6,19.4,30.62,ENE,76,1.0,2.0,74,0.00,,CLR,0.00,0.00,VWS V14.01,2013-11-05 02:01:00,
2013-11-04 21:05:00,26.6,19.4,30.62,ENE,76,1.0,2.0,74,0.00,,CLR,0.00,0.00,VWS V14.01,2013-11-05 02:05:00,
2013-11-04 21:06:00,26.6,19.4,30.62,ENE,76,0.0,2.0,74,0.00,,CLR,0.00,0.00,VWS V14.01,2013-11-05 02:06:00,
2013-11-04 21:10:00,26.6,19.4,30.62,ENE,76,0.0,2.0,74,0.00,,CLR,0.00,0.00,VWS V14.01,2013-11-05 02:10:00,
2013-11-04 21:11:00,26.5,19.0,30.63,ENE,76,1.0,1.0,73,0.00,,CLR,0.00,0.00,VWS V14.01,2013-11-05 02:11:00,
2013-11-04 21:15:00,26.5,19.0,30.63,ENE,76,1.0,1.0,73,0.00,,CLR,0.00,0.00,VWS V14.01,2013-11-05 02:15:00,
2013-11-04 21:16:00,26.4,18.9,30.62,ENE,76,0.0,1.0,73,0.00,,CLR,0.00,0.00,VWS V14.01,2013-11-05 02:16:00,
2013-11-04 21:20:00,26.4,18.9,30.62,ENE,76,0.0,1.0,73,0.00,,CLR,0.00,0.00,VWS V14.01,2013-11-05 02:20:00,
2013-11-04 21:21:00,26.2,18.7,30.62,ENE,77,0.0,0.0,73,0.00,,CLR,0.00,0.00,VWS V14.01,2013-11-05 02:21:00,
2013-11-04 21:25:00,26.3,18.8,30.63,ENE,76,0.0,0.0,73,0.00,,CLR,0.00,0.00,VWS V14.01,2013-11-05 02:25:00,
2013-11-04 21:27:00,26.1,19.0,30.63,ENE,77,0.0,0.0,74,0.00,,CLR,0.00,0.00,VWS V14.01,2013-11-05 02:27:00,
2013-11-04 21:30:00,26.1,19.0,30.63,ENE,77,0.0,0.0,74,0.00,,CLR,0.00,0.00,VWS V14.01,2013-11-05 02:30:00,
2013-11-04 21:32:00,26.0,18.9,30.62,ENE,77,0.0,0.0,74,0.00,,CLR,0.00,0.00,VWS V14.01,2013-11-05 02:32:00,
2013-11-04 21:35:00,26.0,18.9,30.62,ENE,76,0.0,0.0,74,0.00,,CLR,0.00,0.00,VWS V14.01,2013-11-05 02:35:00,
2013-11-04 21:37:00,25.9,19.1,30.62,ENE,77,0.0,0.0,75,0.00,,CLR,0.00,0.00,VWS V14.01,2013-11-05 02:37:00,
2013-11-04 21:40:00,25.9,19.1,30.62,ENE,76,0.0,0.0,75,0.00,,CLR,0.00,0.00,VWS V14.01,2013-11-05 02:40:00,
2013-11-04 21:42:00,25.7,18.9,30.63,ENE,77,0.0,0.0,75,0.00,,CLR,0.00,0.00,VWS V14.01,2013-11-05 02:42:00,
2013-11-04 21:45:00,25.7,18.9,30.63,ENE,76,0.0,0.0,75,0.00,,CLR,0.00,0.00,VWS V14.01,2013-11-05 02:45:00,
2013-11-04 21:47:00,25.5,18.7,30.62,ENE,76,0.0,0.0,75,0.00,,CLR,0.00,0.00,VWS V14.01,2013-11-05 02:47:00,
2013-11-04 21:50:00,25.5,18.7,30.62,ENE,77,0.0,0.0,75,0.00,,CLR,0.00,0.00,VWS V14.01,2013-11-05 02:50:00,
2013-11-04 21:52:00,25.3,18.5,30.62,ENE,77,0.0,0.0,75,0.00,,CLR,0.00,0.00,VWS V14.01,2013-11-05 02:52:00,
2013-11-04 21:55:00,25.3,18.5,30.62,ENE,77,0.0,0.0,75,0.00,,CLR,0.00,0.00,VWS V14.01,2013-11-05 02:55:00,
2013-11-04 21:57:00,25.1,18.6,30.62,ENE,76,0.0,0.0,76,0.00,,CLR,0.00,0.00,VWS V14.01,2013-11-05 02:57:00,
2013-11-04 22:00:00,25.1,18.6,30.63,ENE,76,0.0,0.0,76,0.00,,CLR,0.00,0.00,VWS V14.01,2013-11-05 03:00:00,
2013-11-04 22:03:00,24.9,18.7,30.62,ENE,77,0.0,0.0,77,0.00,,CLR,0.00,0.00,VWS V14.01,2013-11-05 03:03:00,
2013-11-04 22:05:00,24.9,18.4,30.62,ENE,77,0.0,0.0,76,0.00,,CLR,0.00,0.00,VWS V14.01,2013-11-05 03:05:00,
2013-11-04 22:08:00,24.7,18.5,30.63,ENE,76,0.0,0.0,77,0.00,,CLR,0.00,0.00,VWS V14.01,2013-11-05 03:08:00,
2013-11-04 22:10:00,24.8,18.6,30.62,ENE,76,0.0,0.0,77,0.00,,CLR,0.00,0.00,VWS V14.01,2013-11-05 03:10:00,
2013-11-04 22:13:00,24.5,18.3,30.62,ENE,77,0.0,0.0,77,0.00,,CLR,0.00,0.00,VWS V14.01,2013-11-05 03:13:00,
2013-11-04 22:15:00,24.6,18.4,30.62,ENE,77,0.0,0.0,77,0.00,,CLR,0.00,0.00,VWS V14.01,2013-11-05 03:15:00,
2013-11-04 22:18:00,24.4,18.5,30.62,ENE,76,0.0,0.0,78,0.00,,CLR,0.00,0.00,VWS V14.01,2013-11-05 03:18:00,
2013-11-04 22:20:00,24.4,18.5,30.62,ENE,76,0.0,0.0,78,0.00,,CLR,0.00,0.00,VWS V14.01,2013-11-05 03:20:00,
2013-11-04 22:23:00,24.3,18.7,30.63,ENE,76,0.0,1.0,79,0.00,,CLR,0.00,0.00,VWS V14.01,2013-11-05 03:23:00,
2013-11-04 22:25:00,24.3,18.7,30.62,ENE,76,0.0,0.0,79,0.00,,CLR,0.00,0.00,VWS V14.01,2013-11-05 03:25:00,
2013-11-04 22:28:00,24.4,19.1,30.62,ENE,76,0.0,1.0,80,0.00,,CLR,0.00,0.00,VWS V14.01,2013-11-05 03:28:00,
2013-11-04 22:30:00,24.4,19.1,30.62,ENE,76,0.0,1.0,80,0.00,,CLR,0.00,0.00,VWS V14.01,2013-11-05 03:30:00,
2013-11-04 22:33:00,24.5,19.2,30.63,ENE,76,0.0,1.0,80,0.00,,CLR,0.00,0.00,VWS V14.01,2013-11-05 03:33:00,
2013-11-04 22:35:00,24.5,19.2,30.62,ENE,77,0.0,1.0,80,0.00,,CLR,0.00,0.00,VWS V14.01,2013-11-05 03:35:00,
2013-11-04 22:39:00,24.4,18.8,30.62,ENE,76,0.0,1.0,79,0.00,,CLR,0.00,0.00,VWS V14.01,2013-11-05 03:39:00,
2013-11-04 22:40:00,24.5,18.9,30.63,ENE,77,0.0,1.0,79,0.00,,CLR,0.00,0.00,VWS V14.01,2013-11-05 03:40:00,
2013-11-04 22:44:00,24.4,18.8,30.63,ENE,77,0.0,1.0,79,0.00,,CLR,0.00,0.00,VWS V14.01,2013-11-05 03:44:00,
2013-11-04 22:45:00,24.4,18.8,30.62,ENE,77,0.0,1.0,79,0.00,,CLR,0.00,0.00,VWS V14.01,2013-11-05 03:45:00,
2013-11-04 22:49:00,24.3,18.7,30.62,ENE,77,0.0,0.0,79,0.00,,CLR,0.00,0.00,VWS V14.01,2013-11-05 03:49:00,
2013-11-04 22:50:00,24.3,18.7,30.62,ENE,76,0.0,1.0,79,0.00,,CLR,0.00,0.00,VWS V14.01,2013-11-05 03:50:00,
2013-11-04 22:54:00,24.2,18.9,30.62,ENE,76,0.0,0.0,80,0.00,,CLR,0.00,0.00,VWS V14.01,2013-11-05 03:54:00,
2013-11-04 22:55:00,24.2,18.6,30.63,ENE,76,0.0,0.0,79,0.00,,CLR,0.00,0.00,VWS V14.01,2013-11-05 03:55:00,
2013-11-04 22:59:00,24.2,18.9,30.63,ENE,76,0.0,0.0,80,0.00,,CLR,0.00,0.00,VWS V14.01,2013-11-05 03:59:00,
2013-11-04 23:00:00,24.2,18.9,30.62,ENE,76,0.0,0.0,80,0.00,,CLR,0.00,0.00,VWS V14.01,2013-11-05 04:00:00,
2013-11-04 23:04:00,24.2,18.9,30.63,ENE,76,0.0,0.0,80,0.00,,CLR,0.00,0.00,VWS V14.01,2013-11-05 04:04:00,
2013-11-04 23:05:00,24.2,18.9,30.63,ENE,77,0.0,0.0,80,0.00,,CLR,0.00,0.00,VWS V14.01,2013-11-05 04:05:00,
2013-11-04 23:09:00,24.1,18.8,30.63,ENE,77,0.0,1.0,80,0.00,,CLR,0.00,0.00,VWS V14.01,2013-11-05 04:09:00,
2013-11-04 23:10:00,24.2,18.9,30.63,ENE,76,0.0,0.0,80,0.00,,CLR,0.00,0.00,VWS V14.01,2013-11-05 04:10:00,
2013-11-04 23:14:00,24.2,18.9,30.63,ENE,77,0.0,0.0,80,0.00,,CLR,0.00,0.00,VWS V14.01,2013-11-05 04:14:00,
2013-11-04 23:15:00,24.2,18.9,30.63,ENE,77,0.0,1.0,80,0.00,,CLR,0.00,0.00,VWS V14.01,2013-11-05 04:15:00,
2013-11-04 23:19:00,24.1,18.8,30.64,ENE,77,0.0,0.0,80,0.00,,CLR,0.00,0.00,VWS V14.01,2013-11-05 04:19:00,
2013-11-04 23:20:00,24.2,18.9,30.63,ENE,76,0.0,0.0,80,0.00,,CLR,0.00,0.00,VWS V14.01,2013-11-05 04:20:00,
2013-11-04 23:24:00,24.2,18.9,30.64,ENE,77,0.0,2.0,80,0.00,,CLR,0.00,0.00,VWS V14.01,2013-11-05 04:24:00,
2013-11-04 23:25:00,24.1,18.8,30.64,ENE,77,1.0,1.0,80,0.00,,CLR,0.00,0.00,VWS V14.01,2013-11-05 04:25:00,
2013-11-04 23:30:00,24.2,18.9,30.64,ENE,77,0.0,0.0,80,0.00,,CLR,0.00,0.00,VWS V14.01,2013-11-05 04:30:00,
2013-11-04 23:35:00,24.1,18.5,30.64,ENE,77,0.0,0.0,79,0.00,,CLR,0.00,0.00,VWS V14.01,2013-11-05 04:35:00,
2013-11-04 23:40:00,24.0,18.5,30.64,ENE,77,0.0,0.0,79,0.00,,CLR,0.00,0.00,VWS V14.01,2013-11-05 04:40:00,
2013-11-04 23:45:00,23.9,18.4,30.64,ENE,76,0.0,0.0,79,0.00,,CLR,0.00,0.00,VWS V14.01,2013-11-05 04:45:00,
2013-11-04 23:50:00,23.8,18.5,30.64,ENE,77,0.0,0.0,80,0.00,,CLR,0.00,0.00,VWS V14.01,2013-11-05 04:50:00,
2013-11-04 23:55:00,23.7,18.5,30.64,ENE,76,0.0,1.0,80,0.00,,CLR,0.00,0.00,VWS V14.01,2013-11-05 04:55:00,